Content
SEND FEEDBACK

Daily
Averages
Monthly
Summary
Australia

DERBY, WESTERN AUSTRALIA


Home > Oceania > Australia > Western Australia
Elevation: 23 feet     Latitude: 17 22S     Longitude: 123 40E

WEATHER
 
SELECT A DAY
Number of Records: 132,038;   Date Range: 10/22/03 - 11/25/14
 
SHARE

PRINT THIS DATA

[ ← Previous Day ]
WEATHER ALMANAC - JANUARY 23, 2013
[ Next Day → ]
[ °C ]   °F
Weather ElementAverageHighLow
Temperature85.2 °F95 °F (2:00 pm)77 °F (3:00 am)
Dewpoint76.9 °F78.8 °F (7:00 am)73.4 °F (5:00 pm)
Humidity76.4 %100 % (3:00 am)49 % (3:00 pm)
Barometer29.72 in29.77 in (7:00 am)29.65 in (3:00 pm)
Wind Speed4.8 mph10.4 mph (3:00 pm)
Weather ElementAverage
Wind DirectionWSW (238 °)

Weather ElementTotal
Precipitation---
Cooling Degree Days21 (Base 65)
Growing Degree Days36 (Base 50)
Averaged from 31 records on January 23, 2013
WEATHER CONDITIONS BREAKOUT
WIND DIRECTION BREAKOUT
WEATHER BY HOUR - JANUARY 23, 2013
[ °C ]   °F
Local TimeTemperatureDewpointHumidityBarometerVisibilityWind DirectionWind SpeedGust SpeedPrecipitationEventsConditions
12:00 AM78.8 °F77.0 °F94 %29.74 inNorth (350°)4.6 mph
1:00 AM78.8 °F77.0 °F94 %29.74 inNorth (350°)4.6 mph
2:00 AM78.8 °F77.0 °F94 %29.71 inNorth (350°)4.6 mph
3:00 AM78.0 °F76.0 °F92 %29.69 inNNE (30°)3.5 mph
3:00 AM77.0 °F77.0 °F100 %29.68 inNNE (30°)3.5 mph
4:00 AM78.8 °F77.0 °F94 %29.71 inNNW (330°)5.8 mph
5:00 AM78.8 °F77.0 °F94 %29.71 inNorth (350°)1.2 mph
6:00 AM78.8 °F77.0 °F94 %29.74 inCalm
6:00 AM78.0 °F77.0 °F96 %29.75 inCalm
7:00 AM80.6 °F78.8 °F94 %29.77 inEast (80°)1.2 mph
8:00 AM84.2 °F78.8 °F84 %29.77 inCalm
9:00 AM88.0 °F78.0 °F67 %29.77 inWNW (290°)4.6 mph
9:00 AM87.8 °F78.8 °F75 %29.77 inWNW (290°)4.6 mph
10:00 AM89.6 °F77.0 °F66 %29.77 inNW (310°)6.9 mph
11:00 AM91.4 °F75.2 °F59 %29.74 inNNW (340°)6.9 mph
12:00 PM91.4 °F77.0 °F63 %29.71 inNorth (360°)4.6 mph
12:00 PM91.0 °F78.0 °F57 %29.72 inNorth4.6 mph
1:00 PM93.2 °F77.0 °F59 %29.68 inNorth (350°)6.9 mph
2:00 PM95.0 °F78.8 °F59 %29.68 inNW (310°)9.2 mph
3:00 PM94.0 °F77.0 °F49 %29.66 inNW (320°)10.4 mph
3:00 PM93.2 °F77.0 °F59 %29.65 inNW (320°)10.4 mph
4:00 PM91.4 °F75.2 °F59 %29.65 inNW (310°)10.4 mph
5:00 PM91.4 °F73.4 °F55 %29.65 inNNW (330°)10.4 mph
6:00 PM87.8 °F75.2 °F66 %29.65 inNNW (340°)8.1 mph
6:00 PM88.0 °F75.0 °F57 %29.66 inNNW (340°)8.1 mph
7:00 PM86.0 °F75.2 °F70 %29.68 inNorth (350°)5.8 mph
8:00 PM84.2 °F77.0 °F79 %29.71 inNorth (350°)4.6 mph
9:00 PM83.0 °F77.0 °F78 %29.74 inNorth2.3 mph
9:00 PM82.4 °F77.0 °F84 %29.74 inNorth (360°)2.3 mph
10:00 PM80.6 °F77.0 °F89 %29.77 inCalm
11:00 PM80.6 °F77.0 °F89 %29.77 inCalm
Hourly data recorded from YDBY, located miles away from Derby, Western Australia







STORIES FROM OUR PARTNERS